Regional Weather Roundup
Issued by NWS

Home | Current Version | Previous Version | Graphics & Text | Print | Product List | Glossary On
Versions: 1 2 3 4 5 6 7 8 9 10 11 12 13 14 15 16 17 18 19 20 21 22 23 24 25 26 27 28 29 30 31 32 33 34 35 36 37 38 39 40 41 42 43 44 45 46 47 48 49 50
000
ASUS43 KFSD 171810
RWRSD

WEATHER ROUNDUP FOR SOUTH DAKOTA
NATIONAL WEATHER SERVICE SIOUX FALLS SD
1200 PM CST WED DEC 17 2014

NOTE: "FAIR" INDICATES FEW OR NO CLOUDS BELOW 12,000 FEET WITH NO
SIGNIFICANT WEATHER AND/OR OBSTRUCTIONS TO VISIBILITY.


SDZ001>005-009-010-012>017-171900-
NORTHWEST AND NORTH CENTRAL SOUTH DAKOTA

CITY           SKY/WX    TMP DP  RH WIND       PRES   REMARKS
BUFFALO          N/A     18  15  88 SE12      29.98F WCI   5
FAITH            N/A     17  14  88 SE17      30.11F WCI   1
MOBRIDGE       CLOUDY    18  11  74 SE14      30.23F WCI   4
$$

SDZ012>016-024>037-041>051-057-063-072>074-171900-
SOUTHWEST AND SOUTH CENTRAL SOUTH DAKOTA

CITY           SKY/WX    TMP DP  RH WIND       PRES   REMARKS
RAPID CTY ARPT CLOUDY    21  18  88 SE9       30.03F WCI  11
PIERRE         CLOUDY    17  14  88 SE14      30.22F WCI   3
CUSTER         MOSUNNY   34  21  59 VRB6      29.89F WCI  29
ELLSWORTH AFB  CLOUDY    20  18  93 SE6       30.02F WCI  12
PHILIP         CLOUDY    23  17  78 SE9       30.14F WCI  13
PINE RIDGE     CLOUDY    25  20  81 S9        30.03F WCI  15
SPEARFISH      FAIR      18  16  93 MISG      29.98F FOG
WINNER         CLOUDY    20  16  84 SE13      30.21F WCI   7
$$

SDZ004>011-016>023-039-040-171900-
NORTHEAST SOUTH DAKOTA

CITY           SKY/WX    TMP DP  RH WIND       PRES   REMARKS
ABERDEEN       MOSUNNY   16  10  77 S3        30.33F
WATERTOWN      FAIR      16  10  77 CALM      30.28F
$$

SDZ017-020-022-023-036>040-048>070-171900-
SOUTHEAST SOUTH DAKOTA

CITY           SKY/WX    TMP DP  RH WIND       PRES   REMARKS
SIOUX FALLS    FAIR      17  11  77 CALM      30.31F
HURON          SUNNY      9   5  84 NE5       30.33F FOG     WCI   1
CHAMBERLAIN    CLOUDY    16  13  87 SE12      30.26F WCI   3
MITCHELL       SUNNY     13  10  88 CALM      30.33F
YANKTON        FAIR      14  10  85 CALM      30.34F
$$

ABBREVIATIONS USED IN REMARKS
   TC - TEMPERATURE IN CELSIUS
  WCI - WIND CHILL INDEX
   HX - HEAT INDEX
  VSB - VISIBILITY



USA.gov is the U.S. government's official web portal to all federal, state and local government web resources and services.